CW2098 Weather Reports


time (UTC)temp
F
wind
direction
speed
knots
gust
knots
rain 1hr
in
rain 24hr
in
rain mn
in
humidity
%
barometer
mb
20260508094855 76 14 0.9 1.7 0.00 0.00 0.00 90 993.1
20260508093843 76 268 0.9 3.5 0.00 0.00 0.00 90 992.6
20260508092843 76 286 0.9 2.6 0.00 0.00 0.00 90 993.0
20260508091843 76 277 1.7 3.5 0.00 0.00 0.00 90 993.3
20260508090843 76 306 0.9 4.3 0.00 0.00 0.00 89 993.0
20260508090326 77 230 1.7 5.2 0.00 0.00 0.00 89 992.9
20260508084840 77 306 1.7 5.2 0.00 0.00 0.00 89 993.5
20260508083841 77 0 0.9 2.6 0.00 0.00 0.00 89 993.1
20260508082840 77 319 1.7 3.5 0.00 0.00 0.00 89 993.3
20260508081839 77 341 1.7 3.5 0.00 0.00 0.00 89 992.7
20260508080840 77 0 1.7 3.5 0.00 0.00 0.00 89 993.0
20260508075839 77 259 0.9 2.6 0.00 0.00 0.00 89 993.4
20260508075314 77 212 0.9 4.3 0.00 0.00 0.00 89 993.3
20260508073839 77 215 0.9 4.3 0.00 0.00 0.00 89 993.4
20260508072839 77 205 0.9 2.6 0.00 0.00 0.00 88 993.1
20260508071839 77 304 1.7 4.3 0.00 0.00 0.00 88 993.8
20260508070839 77 262 0.9 5.2 0.00 0.00 0.00 88 993.6
20260508070324 77 0 0.9 3.5 0.00 0.00 0.00 88 993.2
20260508064839 77 0 1.7 4.3 0.00 0.00 0.00 88 993.1
20260508063836 76 228 0.9 3.5 0.00 0.00 0.00 87 992.5
20260508062836 77 216 1.7 4.3 0.00 0.00 0.00 87 992.6
20260508061835 77 220 1.7 3.5 0.00 0.00 0.00 86 992.9
20260508060835 77 250 1.7 4.3 0.00 0.00 0.00 86 993.1
20260508060319 77 273 1.7 4.3 0.00 0.00 0.00 85 992.8
20260508054834 77 202 1.7 5.2 0.00 0.00 0.00 85 993.2
20260508053834 77 338 1.7 3.5 0.00 0.00 0.00 84 993.3
20260508052834 77 251 0.9 3.5 0.00 0.00 0.00 84 993.1
20260508051831 77 225 0.9 3.5 0.00 0.00 0.00 84 992.9
20260508050832 77 214 0.9 4.3 0.00 0.00 0.00 83 992.8
20260508045831 78 211 1.7 5.2 0.00 0.00 0.00 83 993.1
20260508044826 78 223 1.7 5.2 0.00 0.00 0.00 82 993.3
20260508043826 78 226 1.7 5.2 0.00 0.00 0.00 81 993.2
20260508042827 78 241 1.7 6.1 0.00 0.00 0.00 81 994.1
20260508042319 79 346 1.7 7.0 0.00 0.00 0.00 80 993.9
20260508040826 79 139 1.7 5.2 0.00 0.00 0.00 79 993.6
20260508035827 79 207 1.7 6.1 0.00 0.00 0.00 78 993.5
20260508034828 80 230 0.9 3.5 0.00 0.00 0.00 76 993.2
20260508033825 80 202 1.7 6.1 0.00 0.00 0.00 76 993.9
20260508032822 80 27 1.7 4.3 0.00 0.00 0.00 75 993.9
20260508031822 80 35 1.7 4.3 0.00 0.00 0.00 74 993.4
20260508030822 80 185 1.7 7.0 0.00 0.00 0.00 73 993.6
20260508025822 80 268 1.7 5.2 0.00 0.00 0.00 72 993.7
20260508024822 81 256 1.7 6.1 0.00 0.00 0.00 71 993.6
20260508023822 81 217 1.7 7.0 0.00 0.00 0.00 70 993.6
20260508022820 81 299 1.7 5.2 0.00 0.00 0.00 70 993.5
20260508021817 81 237 1.7 5.2 0.00 0.00 0.00 70 993.5
20260508020816 82 246 1.7 4.3 0.00 0.00 0.00 68 993.5
20260508015816 82 209 1.7 3.5 0.00 0.00 0.00 67 993.6
20260508014816 82 320 1.7 4.3 0.00 0.00 0.00 66 993.7
20260508014312 82 166 1.7 6.1 0.00 0.00 0.00 64 994.0
20260508013256 83 269 1.7 4.3 0.00 0.00 0.00 64 994.0
20260508011817 83 273 0.9 3.5 0.00 0.00 0.00 63 993.6
20260508010827 83 246 0.9 4.3 0.00 0.00 0.00 63 992.8
20260508005812 83 202 0.9 2.6 0.00 0.00 0.00 61 993.1
20260508004811 84 235 1.7 4.3 0.00 0.00 0.00 59 993.2
20260508004258 84 323 0.9 2.6 0.00 0.00 0.00 57 993.5
20260508002812 85 240 0.9 3.5 0.00 0.00 0.00 56 993.7
20260508001815 85 203 1.7 5.2 0.00 0.00 0.00 55 993.7
20260508001335 85 267 1.7 4.3 0.00 0.00 0.00 55 994.0
20260508000250 86 188 0.9 4.3 0.00 0.00 0.00 54 994.3
20260507234811 86 263 1.7 5.2 0.00 0.00 0.00 52 994.7
20260507234250 86 249 1.7 6.1 0.00 0.00 0.00 52 994.7
20260507232811 87 270 1.7 3.5 0.00 0.00 0.00 52 994.8
20260507231811 87 296 1.7 5.2 0.00 0.00 0.00 48 995.0
20260507230811 87 189 2.6 6.1 0.00 0.00 0.00 47 995.0
20260507225811 87 227 2.6 6.1 0.00 0.00 0.00 47 994.6
20260507224811 88 218 3.5 7.8 0.00 0.00 0.00 46 994.9
20260507224249 88 222 3.5 9.6 0.00 0.00 0.00 48 995.2
20260507221804 88 19 2.6 7.8 0.00 0.00 0.00 50 996.9
20260507220815 89 228 2.6 7.0 0.00 0.00 0.00 50 997.3
20260507215801 88 270 2.6 7.0 0.00 0.00 0.00 50 999.5
20260507214802 87 207 3.5 9.6 0.00 0.00 0.00 51 999.9
20260507213803 87 229 2.6 7.0 0.00 0.00 0.00 52 997.5
20260507213236 86 32 2.6 7.0 0.00 0.00 0.00 52 997.3
20260507211802 85 316 3.5 7.8 0.00 0.00 0.00 56 996.6
20260507210814 85 199 4.3 8.7 0.00 0.00 0.00 57 994.9
20260507205801 85 206 3.5 8.7 0.00 0.00 0.00 58 995.3
20260507204801 85 283 2.6 8.7 0.00 0.00 0.00 56 995.7
20260507203801 84 237 3.5 7.0 0.00 0.00 0.00 56 995.3
20260507202801 84 226 3.5 7.8 0.00 0.00 0.00 56 995.3
20260507201801 84 1 2.6 7.0 0.00 0.00 0.00 58 995.2
20260507200757 84 225 2.6 7.0 0.00 0.00 0.00 60 995.3
20260507195757 85 224 2.6 7.8 0.00 0.00 0.00 59 996.0
20260507194757 85 209 3.5 8.7 0.00 0.00 0.00 58 996.0
20260507193754 85 321 3.5 10.4 0.00 0.00 0.00 58 996.5
20260507192755 86 217 3.5 7.0 0.00 0.00 0.00 57 997.7
20260507191808 85 298 3.5 7.8 0.00 0.00 0.00 58 999.1
20260507190755 85 204 3.5 7.8 0.00 0.00 0.00 58 1000.7
20260507185756 85 250 2.6 7.0 0.00 0.00 0.00 60 1001.5
20260507184752 85 250 3.5 7.8 0.00 0.00 0.00 59 999.5
20260507183753 86 214 2.6 7.0 0.00 0.00 0.00 58 1000.1
20260507182753 86 218 2.6 7.0 0.00 0.00 0.00 57 1003.3
20260507180806 86 219 2.6 9.6 0.00 0.00 0.00 56 1007.2
20260507175753 85 318 2.6 7.0 0.00 0.00 0.00 58 1005.5
20260507174236 85 262 1.7 5.2 0.00 0.00 0.00 58 998.3
20260507172752 87 15 1.7 4.3 0.00 0.00 0.00 55 999.5
20260507171752 87 216 2.6 7.8 0.00 0.00 0.00 47 1002.7
20260507170752 88 293 2.6 7.8 0.00 0.00 0.00 47 1005.6
20260507164752 88 236 2.6 7.8 0.00 0.00 0.00 46 1008.8
20260507163752 87 345 2.6 8.7 0.00 0.00 0.00 46 1007.4
20260507162752 87 232 2.6 7.0 0.00 0.00 0.00 47 1007.4
20260507161752 87 220 2.6 7.8 0.00 0.00 0.00 48 1006.5
20260507160752 87 309 3.5 7.0 0.00 0.00 0.00 51 1007.8
20260507155749 86 297 2.6 7.8 0.00 0.00 0.00 54 1007.8
20260507155232 86 270 2.6 7.0 0.00 0.00 0.00 54 1008.8
20260507154240 86 261 2.6 7.0 0.00 0.00 0.00 58 1007.9
20260507152748 85 352 2.6 7.0 0.00 0.00 0.00 60 1006.8
20260507151746 84 272 2.6 7.0 0.00 0.00 0.00 61 1006.9
20260507151228 84 247 1.7 6.1 0.00 0.00 0.00 63 1006.8
20260507145746 82 331 1.7 3.5 0.00 0.00 0.00 66 1002.9
20260507144746 82 170 2.6 6.1 0.00 0.00 0.00 67 1002.4
20260507143744 82 187 1.7 4.3 0.00 0.00 0.00 68 1003.6
20260507141742 80 215 1.7 5.2 0.00 0.00 0.00 71 1001.9
20260507140742 80 11 0.9 3.5 0.00 0.00 0.00 73 1003.5
20260507135742 79 154 0.9 3.5 0.00 0.00 0.00 73 1003.0
20260507134742 78 219 1.7 3.5 0.00 0.00 0.00 75 1001.9
20260507134234 78 25 1.7 3.5 0.00 0.00 0.00 75 1001.7
20260507132738 77 346 1.7 3.5 0.00 0.00 0.00 75 1000.2
20260507131735 76 53 0.9 2.6 0.00 0.00 0.00 77 1000.6
20260507130735 76 48 1.7 2.6 0.00 0.00 0.00 78 999.1
20260507125735 75 36 1.7 3.5 0.00 0.00 0.00 79 998.8
20260507124736 75 333 1.7 4.3 0.00 0.00 0.00 80 998.5
20260507124217 75 7 1.7 4.3 0.00 0.00 0.00 82 998.2
20260507122736 74 335 1.7 4.3 0.00 0.00 0.00 84 997.4
20260507121733 74 343 1.7 5.2 0.00 0.00 0.00 85 996.1
20260507120732 73 357 0.9 2.6 0.00 0.00 0.00 87 995.9
20260507120209 72 305 0.9 2.6 0.00 0.00 0.00 87 994.2
20260507114733 72 262 1.7 3.5 0.00 0.00 0.00 88 993.1
20260507113732 71 298 1.7 4.3 0.00 0.00 0.00 88 992.4
20260507113214 71 155 1.7 3.5 0.00 0.00 0.00 88 992.1
20260507111733 71 215 1.7 3.5 0.00 0.00 0.00 88 991.7
20260507110733 71 229 0.9 2.6 0.00 0.00 0.00 88 991.1
20260507105732 71 168 0.9 2.6 0.00 0.00 0.00 88 990.5
20260507104733 71 0 0.9 2.6 0.00 0.00 0.00 87 990.3
20260507103731 71 221 0.9 2.6 0.00 0.00 0.00 87 990.1
20260507102729 71 0 0.0 1.7 0.00 0.00 0.00 87 990.0
20260507101725 71 0 0.0 1.7 0.00 0.00 0.00 86 989.7
20260507100725 72 0 0.0 2.6 0.00 0.00 0.00 85 990.2
20260507095725 72 0 0.0 1.7 0.00 0.00 0.00 85 990.3